Location: L�Ave Maria
(50.7161°N, 1.5911°E)
Time: 00:34:38
(UTC+00:00)

Cosmos 1943 Rocket - Pass Details

Date: 10 July 2020
Orbit: 811 x 845 km, 71.0° (Epoch: 03 August)

Event Time Altitude Azimuth Distance (km) Brightness Sun altitude
Rises 21:15:28 0° 332° (NNW) 3,417 7.5 -8.8°
Reaches altitude 10° 21:18:18 10° 344° (NNW) 2,479 5.9 -9.0°
Maximum altitude 21:23:08 28° 42° (NE) 1,553 3.7 -9.5°
Drops below altitude 10° 21:27:56 10° 101° (E) 2,461 4.2 -9.9°
Enters shadow 21:29:10 - 107° (ESE) 2,855 4.5 -10.0°
